STARLINK-38095, 100179

Orbit data source: Space-Track

STARLINK-38095, 100179 is a payload satellite owned by SpaceX/Seattle (US) in SSO that was launched on Sat, 01 Aug 2026 UTC launched from the Air Force Western Test Range (AFWTR). Payload-class satellites include a variety of spacecraft equipped with specific instruments for various scientific and technological missions. These include communications satellites like Starlink; space stations such as the ISS; scientific satellites like the Hubble; Earth observation satellites from companies like Planet Labs, Umbra, and HawkEye 360; GPS; miniature CubeSats for education and research; and military/defense satellites.

Loading next visibility...
Identifier
100179, 2026-175A
Orbit
SSO
Country
Flag of USUS
Related business
Manufacturer
SpaceX/Seattle
Mission
Operational spacecraft
Bus & Motor
STARLINK V2MO, Unknown motor
Mass
575 kg wet, ~530 kg dry
Launch date (UTC)
2026-08-01 (1 month ago)
Launch vehicle
Unknown
Launch site
Air Force Western Test Range (AFWTR)
Object type
Payload
Rocket body
Debris
Shape & HBR
BOX + PAN, 17.7 m
Radar Cross Section
Large (>1 m²)

Expand to show TLE details & history
Last TLE update: 8 hours ago

TLE from 8 hours ago
0 STARLINK-38095
1 A0179U 26175A   26249.52148406  .00140080  00000-0  92253-3 0  9998
2 A0179  97.2831  91.2347 0001926 107.7423 252.4052 15.75243606  6978
Epoch: 2026-09-06T12:30Z
TLE epoch observation values (Epoch: 2026-09-06T12:30:56.222Z)
Latitude
-0.0001°
Longitude
-82.11495°
Altitude
347.498 km
Speed
7.7 km/s
True Right ascension
06h 04m 56s
True Declination
0° 00' 00"
Sunlit
Object was in daylight at epoch
Visualization orbit readout
Latitude
Unknown
Longitude
Unknown
Altitude
Unknown
Speed
Unknown
Apparent Right ascension
Unknown
Apparent Declination
Unknown
Sunlit
N/A
Visualization observer readout
Local Sidereal Time
12:35:48
Azimuth
Unknown
Elevation
Unknown
Doppler factor
Unknown
Orbital elements
Apogee altitude
342.119 km
Perigee altitude
339.531 km
Semi-major axis
6,718.962 km
Eccentricity
0.00019
Inclination
97.2831°
RAAN
91.2347°
Arg. of periapsis
107.7423°
True anomaly
252.38416°
Mean anomaly
252.4052°
Eccentric anomaly
252.39468°
Mean motion
3.94085 °/min
Orbital period
91.35 mins
BSTAR
0.00092253
Loading maneuver chart data...
Computing Atmospheric mass density...
Loading historical data...
Loading historical data...
Loading historical data...
Loading historical data...
Loading historical data...
Loading historical data...
Loading historical data...

Documentation

Showing up to 5 results
|